This is the latest recevied weather packets stored in our database for station/object W0AKY-13. If no packets are shown the sender has not sent any weather packets the latest 10 day(s).
| Time | Temp. | Humidity | Pressure | Rain* | Wind** | Luminosity | Snow |
|---|---|---|---|---|---|---|---|
| 1788618755 | 27.78° C | 77% | 1016 hPa | 0 mm | - | 214 W/m² | - |
| 1788618453 | 27.78° C | 78% | 1016.1 hPa | 0 mm | - | 80 W/m² | - |
| 1788618148 | 27.22° C | 78% | 1016 hPa | 0 mm | - | 44 W/m² | - |
| 1788617844 | 27.22° C | 80% | 1016 hPa | 0 mm | - | 30 W/m² | - |
| 1788617540 | 27.22° C | 79% | 1016 hPa | 0 mm | - | 29 W/m² | - |
| 1788617235 | 26.67° C | 79% | 1015.9 hPa | 0 mm | - | 27 W/m² | - |
| 1788616929 | 26.67° C | 80% | 1015.9 hPa | 0 mm | - | 26 W/m² | - |
| 1788616624 | 26.11° C | 81% | 1015.8 hPa | 0 mm | - | 26 W/m² | - |
| 1788616320 | 25.56° C | 82% | 1015.7 hPa | 0 mm | - | 24 W/m² | - |
| 1788616019 | 25° C | 87% | 1015.5 hPa | 0 mm | - | 23 W/m² | - |
| 1788615718 | 25° C | 90% | 1015.6 hPa | 0 mm | - | 26 W/m² | - |
| 1788615413 | 24.44° C | 92% | 1015.6 hPa | 0 mm | - | 22 W/m² | - |
| 1788615114 | 23.89° C | 94% | 1015.6 hPa | 0 mm | - | 21 W/m² | - |
| 1788614813 | 23.33° C | 96% | 1015.6 hPa | 0 mm | - | 20 W/m² | - |
| 1788614508 | 23.33° C | 97% | 1015.8 hPa | 0 mm | - | 20 W/m² | - |
| 1788614204 | 23.33° C | 97% | 1015.5 hPa | 0 mm | - | 19 W/m² | - |
| 1788613904 | 22.78° C | 98% | 1015.6 hPa | 0 mm | - | 18 W/m² | - |
| 1788613599 | 22.78° C | 98% | 1015.4 hPa | 0 mm | - | 17 W/m² | - |
| 1788613298 | 22.78° C | 98% | 1015.3 hPa | 0 mm | - | 17 W/m² | - |
| 1788612992 | 22.22° C | 98% | 1015.5 hPa | 0 mm | - | 15 W/m² | - |
| 1788612688 | 22.22° C | 98% | 1015.3 hPa | 0 mm | - | 15 W/m² | - |
| 1788612385 | 22.22° C | 98% | 1015.5 hPa | 0 mm | - | 13 W/m² | - |
| 1788612081 | 22.22° C | 98% | 1015.1 hPa | 0 mm | - | 12 W/m² | - |
| 1788611776 | 22.22° C | 98% | 1015.4 hPa | 0 mm | - | 11 W/m² | - |
| 1788611473 | 22.22° C | 98% | 1015.1 hPa | 0 mm | - | 10 W/m² | - |
* Rain latest hour (hover to see other rain measurements)
** Current wind speed in m/s (hover to see current wind gust speed)